Year,Month,Day,Hour,Minute,Value (Times are PST for temperature in C)
2013,08,24,00,00,15.20
2013,08,24,00,01,15.20
2013,08,24,00,02,15.20
2013,08,24,00,03,15.20
2013,08,24,00,04,15.20
2013,08,24,00,05,15.20
2013,08,24,00,06,15.20
2013,08,24,00,07,15.20
2013,08,24,00,08,15.20
2013,08,24,00,09,15.20
2013,08,24,00,10,15.20
2013,08,24,00,11,15.20
2013,08,24,00,12,15.20
2013,08,24,00,13,15.20
2013,08,24,00,14,15.20
2013,08,24,00,15,15.20
2013,08,24,00,16,15.30
2013,08,24,00,17,15.30
2013,08,24,00,18,15.30
2013,08,24,00,19,15.30
2013,08,24,00,20,15.30
2013,08,24,00,21,15.30
2013,08,24,00,22,15.30
2013,08,24,00,23,15.30
2013,08,24,00,24,15.30
2013,08,24,00,25,15.30
2013,08,24,00,26,15.30
2013,08,24,00,27,15.30
2013,08,24,00,28,15.30
2013,08,24,00,29,15.30
2013,08,24,00,30,15.30
2013,08,24,00,31,15.30
2013,08,24,00,32,15.30
2013,08,24,00,33,15.30
2013,08,24,00,34,15.30
2013,08,24,00,35,15.30
2013,08,24,00,36,15.30
2013,08,24,00,37,15.30
2013,08,24,00,38,15.30
2013,08,24,00,39,15.30
2013,08,24,00,40,15.30
2013,08,24,00,41,15.30
2013,08,24,00,42,15.30
2013,08,24,00,43,15.30
2013,08,24,00,44,15.30
2013,08,24,00,45,15.30
2013,08,24,00,46,15.30
2013,08,24,00,47,15.30
2013,08,24,00,48,15.30
2013,08,24,00,49,15.30
2013,08,24,00,50,15.30
2013,08,24,00,51,15.30
2013,08,24,00,52,15.30
2013,08,24,00,53,15.30
2013,08,24,00,54,15.30
2013,08,24,00,55,15.30
2013,08,24,00,56,15.30
2013,08,24,00,57,15.30
2013,08,24,00,58,15.30
2013,08,24,00,59,15.30
2013,08,24,01,00,15.30
2013,08,24,01,01,15.30
2013,08,24,01,02,15.30
2013,08,24,01,03,15.30
2013,08,24,01,04,15.30
2013,08,24,01,05,15.30
2013,08,24,01,06,15.30
2013,08,24,01,07,15.30
2013,08,24,01,08,15.30
2013,08,24,01,09,15.20
2013,08,24,01,10,15.20
2013,08,24,01,11,15.20
2013,08,24,01,12,15.20
2013,08,24,01,13,15.20
2013,08,24,01,14,15.20
2013,08,24,01,15,15.20
2013,08,24,01,16,15.20
2013,08,24,01,17,15.20
2013,08,24,01,18,15.20
2013,08,24,01,19,15.20
2013,08,24,01,20,15.20
2013,08,24,01,21,15.20
2013,08,24,01,22,15.20
2013,08,24,01,23,15.10
2013,08,24,01,24,15.10
2013,08,24,01,25,15.10
2013,08,24,01,26,15.10
2013,08,24,01,27,15.10
2013,08,24,01,28,15.10
2013,08,24,01,29,15.10
2013,08,24,01,30,15.00
2013,08,24,01,31,15.00
2013,08,24,01,32,15.00
2013,08,24,01,33,15.00
2013,08,24,01,34,15.00
2013,08,24,01,35,15.00
2013,08,24,01,36,15.00
2013,08,24,01,37,15.00
2013,08,24,01,38,15.00
2013,08,24,01,39,15.00
2013,08,24,01,40,15.00
2013,08,24,01,41,15.00
2013,08,24,01,42,15.00
2013,08,24,01,43,15.00
2013,08,24,01,44,15.00
2013,08,24,01,45,15.00
2013,08,24,01,46,15.00
2013,08,24,01,47,15.00
2013,08,24,01,48,15.00
2013,08,24,01,49,15.00
2013,08,24,01,50,15.00
2013,08,24,01,51,15.00
2013,08,24,01,52,15.00
2013,08,24,01,53,15.00
2013,08,24,01,54,15.00
2013,08,24,01,55,15.00
2013,08,24,01,56,15.00
2013,08,24,01,57,15.00
2013,08,24,01,58,15.00
2013,08,24,01,59,15.00
2013,08,24,02,00,15.00
2013,08,24,02,01,15.00
2013,08,24,02,02,15.00
2013,08,24,02,03,15.00
2013,08,24,02,04,15.00
2013,08,24,02,05,15.00
2013,08,24,02,06,15.00
2013,08,24,02,07,15.00
2013,08,24,02,08,15.00
2013,08,24,02,09,15.00
2013,08,24,02,10,15.00
2013,08,24,02,11,15.00
2013,08,24,02,12,15.00
2013,08,24,02,13,15.00
2013,08,24,02,14,15.00
2013,08,24,02,15,15.00
2013,08,24,02,16,14.90
2013,08,24,02,17,14.90
2013,08,24,02,18,14.90
2013,08,24,02,19,14.90
2013,08,24,02,20,14.90
2013,08,24,02,21,14.90
2013,08,24,02,22,14.80
2013,08,24,02,23,14.80
2013,08,24,02,24,14.80
2013,08,24,02,25,14.80
2013,08,24,02,26,14.80
2013,08,24,02,27,14.80
2013,08,24,02,28,14.70
2013,08,24,02,29,14.70
2013,08,24,02,30,14.70
2013,08,24,02,31,14.70
2013,08,24,02,32,14.70
2013,08,24,02,33,14.70
2013,08,24,02,34,14.70
2013,08,24,02,35,14.70
2013,08,24,02,36,14.60
2013,08,24,02,37,14.60
2013,08,24,02,38,14.60
2013,08,24,02,39,14.60
2013,08,24,02,40,14.60
2013,08,24,02,41,14.60
2013,08,24,02,42,14.50
2013,08,24,02,43,14.50
2013,08,24,02,44,14.50
2013,08,24,02,45,14.40
2013,08,24,02,46,14.40
2013,08,24,02,47,14.40
2013,08,24,02,48,14.40
2013,08,24,02,49,14.40
2013,08,24,02,50,14.40
2013,08,24,02,51,14.40
2013,08,24,02,52,14.30
2013,08,24,02,53,14.30
2013,08,24,02,54,14.30
2013,08,24,02,55,14.30
2013,08,24,02,56,14.30
2013,08,24,02,57,14.30
2013,08,24,02,58,14.30
2013,08,24,02,59,14.30
2013,08,24,03,00,14.30
2013,08,24,03,01,14.30
2013,08,24,03,02,14.30
2013,08,24,03,03,14.20
2013,08,24,03,04,14.20
2013,08,24,03,05,14.20
2013,08,24,03,06,14.20
2013,08,24,03,07,14.20
2013,08,24,03,08,14.20
2013,08,24,03,09,14.20
2013,08,24,03,10,14.20
2013,08,24,03,11,14.20
2013,08,24,03,12,14.10
2013,08,24,03,13,14.10
2013,08,24,03,14,14.10
2013,08,24,03,15,14.10
2013,08,24,03,16,14.10
2013,08,24,03,17,14.00
2013,08,24,03,18,14.00
2013,08,24,03,19,14.00
2013,08,24,03,20,14.00
2013,08,24,03,21,13.90
2013,08,24,03,22,13.90
2013,08,24,03,23,13.90
2013,08,24,03,24,13.90
2013,08,24,03,25,13.90
2013,08,24,03,26,13.80
2013,08,24,03,27,13.80
2013,08,24,03,28,13.80
2013,08,24,03,29,13.80
2013,08,24,03,30,13.80
2013,08,24,03,31,13.80
2013,08,24,03,32,13.80
2013,08,24,03,33,13.80
2013,08,24,03,34,13.70
2013,08,24,03,35,13.70
2013,08,24,03,36,13.70
2013,08,24,03,37,13.70
2013,08,24,03,38,13.70
2013,08,24,03,39,13.60
2013,08,24,03,40,13.60
2013,08,24,03,41,13.60
2013,08,24,03,42,13.60
2013,08,24,03,43,13.60
2013,08,24,03,44,13.50
2013,08,24,03,45,13.50
2013,08,24,03,46,13.50
2013,08,24,03,47,13.50
2013,08,24,03,48,13.50
2013,08,24,03,49,13.50
2013,08,24,03,50,13.50
2013,08,24,03,51,13.50
2013,08,24,03,52,13.50
2013,08,24,03,53,13.40
2013,08,24,03,54,13.40
2013,08,24,03,55,13.40
2013,08,24,03,56,13.40
2013,08,24,03,57,13.40
2013,08,24,03,58,13.40
2013,08,24,03,59,13.40
2013,08,24,04,00,13.40
2013,08,24,04,01,13.30
2013,08,24,04,02,13.30
2013,08,24,04,03,13.30
2013,08,24,04,04,13.30
2013,08,24,04,05,13.30
2013,08,24,04,06,13.30
2013,08,24,04,07,13.20
2013,08,24,04,08,13.20
2013,08,24,04,09,13.20
2013,08,24,04,10,13.20
2013,08,24,04,11,13.20
2013,08,24,04,12,13.20
2013,08,24,04,13,13.10
2013,08,24,04,14,13.10
2013,08,24,04,15,13.10
2013,08,24,04,16,13.10
2013,08,24,04,17,13.10
2013,08,24,04,18,13.10
2013,08,24,04,19,13.10
2013,08,24,04,20,13.10
2013,08,24,04,21,13.10
2013,08,24,04,22,13.10
2013,08,24,04,23,13.10
2013,08,24,04,24,13.10
2013,08,24,04,25,13.10
2013,08,24,04,26,13.10
2013,08,24,04,27,13.10
2013,08,24,04,28,13.10
2013,08,24,04,29,13.10
2013,08,24,04,30,13.00
2013,08,24,04,31,13.00
2013,08,24,04,32,13.00
2013,08,24,04,33,13.00
2013,08,24,04,34,13.00
2013,08,24,04,35,12.90
2013,08,24,04,36,12.90
2013,08,24,04,37,12.90
2013,08,24,04,38,12.90
2013,08,24,04,39,12.90
2013,08,24,04,40,12.80
2013,08,24,04,41,12.80
2013,08,24,04,42,12.80
2013,08,24,04,43,12.80
2013,08,24,04,44,12.80
2013,08,24,04,45,12.80
2013,08,24,04,46,12.70
2013,08,24,04,47,12.70
2013,08,24,04,48,12.70
2013,08,24,04,49,12.70
2013,08,24,04,50,12.70
2013,08,24,04,51,12.70
2013,08,24,04,52,12.70
2013,08,24,04,53,12.70
2013,08,24,04,54,12.70
2013,08,24,04,55,12.70
2013,08,24,04,56,12.70
2013,08,24,04,57,12.70
2013,08,24,04,58,12.70
2013,08,24,04,59,12.60
2013,08,24,05,00,12.60
2013,08,24,05,01,12.60
2013,08,24,05,02,12.60
2013,08,24,05,03,12.60
2013,08,24,05,04,12.60
2013,08,24,05,05,12.60
2013,08,24,05,06,12.60
2013,08,24,05,07,12.70
2013,08,24,05,08,12.70
2013,08,24,05,09,12.70
2013,08,24,05,10,12.70
2013,08,24,05,11,12.70
2013,08,24,05,12,12.70
2013,08,24,05,13,12.70
2013,08,24,05,14,12.70
2013,08,24,05,15,12.70
2013,08,24,05,16,12.70
2013,08,24,05,17,12.70
2013,08,24,05,18,12.70
2013,08,24,05,19,12.70
2013,08,24,05,20,12.70
2013,08,24,05,21,12.70
2013,08,24,05,22,12.70
2013,08,24,05,23,12.70
2013,08,24,05,24,12.70
2013,08,24,05,25,12.70
2013,08,24,05,26,12.70
2013,08,24,05,27,12.80
2013,08,24,05,28,12.80
2013,08,24,05,29,12.80
2013,08,24,05,30,12.80
2013,08,24,05,31,12.80
2013,08,24,05,32,12.80
2013,08,24,05,33,12.80
2013,08,24,05,34,12.80
2013,08,24,05,35,12.80
2013,08,24,05,36,12.80
2013,08,24,05,37,12.70
2013,08,24,05,38,12.70
2013,08,24,05,39,12.70
2013,08,24,05,40,12.70
2013,08,24,05,41,12.70
2013,08,24,05,42,12.70
2013,08,24,05,43,12.70
2013,08,24,05,44,12.70
2013,08,24,05,45,12.70
2013,08,24,05,46,12.70
2013,08,24,05,47,12.70
2013,08,24,05,48,12.70
2013,08,24,05,49,12.70
2013,08,24,05,50,12.70
2013,08,24,05,51,12.70
2013,08,24,05,52,12.70
2013,08,24,05,53,12.70
2013,08,24,05,54,12.70
2013,08,24,05,55,12.70
2013,08,24,05,56,12.70
2013,08,24,05,57,12.70
2013,08,24,05,58,12.70
2013,08,24,05,59,12.70
2013,08,24,06,00,12.70
2013,08,24,06,01,12.70
2013,08,24,06,02,12.70
2013,08,24,06,03,12.70
2013,08,24,06,04,12.70
2013,08,24,06,05,12.70
2013,08,24,06,06,12.70
2013,08,24,06,07,12.70
2013,08,24,06,08,12.70
2013,08,24,06,09,12.70
2013,08,24,06,10,12.70
2013,08,24,06,11,12.70
2013,08,24,06,12,12.60
2013,08,24,06,13,12.60
2013,08,24,06,14,12.60
2013,08,24,06,15,12.60
2013,08,24,06,16,12.60
2013,08,24,06,17,12.60
2013,08,24,06,18,12.60
2013,08,24,06,19,12.60
2013,08,24,06,20,12.60
2013,08,24,06,21,12.60
2013,08,24,06,22,12.60
2013,08,24,06,23,12.60
2013,08,24,06,24,12.60
2013,08,24,06,25,12.60
2013,08,24,06,26,12.60
2013,08,24,06,27,12.60
2013,08,24,06,28,12.60
2013,08,24,06,29,12.60
2013,08,24,06,30,12.60
2013,08,24,06,31,12.60
2013,08,24,06,32,12.60
2013,08,24,06,33,12.60
2013,08,24,06,34,12.60
2013,08,24,06,35,12.60
2013,08,24,06,36,12.60
2013,08,24,06,37,12.60
2013,08,24,06,38,12.60
2013,08,24,06,39,12.60
2013,08,24,06,40,12.60
2013,08,24,06,41,12.60
2013,08,24,06,42,12.60
2013,08,24,06,43,12.60
2013,08,24,06,44,12.60
2013,08,24,06,45,12.60
2013,08,24,06,46,12.70
2013,08,24,06,47,12.70
2013,08,24,06,48,12.70
2013,08,24,06,49,12.70
2013,08,24,06,50,12.70
2013,08,24,06,51,12.70
2013,08,24,06,52,12.70
2013,08,24,06,53,12.70
2013,08,24,06,54,12.70
2013,08,24,06,55,12.70
2013,08,24,06,56,12.80
2013,08,24,06,57,12.80
2013,08,24,06,58,12.80
2013,08,24,06,59,12.80
2013,08,24,07,00,12.80
2013,08,24,07,01,12.80
2013,08,24,07,02,12.80
2013,08,24,07,03,12.80
2013,08,24,07,04,12.80
2013,08,24,07,05,12.80
2013,08,24,07,06,12.80
2013,08,24,07,07,12.80
2013,08,24,07,08,12.80
2013,08,24,07,09,12.80
2013,08,24,07,10,12.80
2013,08,24,07,11,12.80
2013,08,24,07,12,12.80
2013,08,24,07,13,12.80
2013,08,24,07,14,12.80
2013,08,24,07,15,12.80
2013,08,24,07,16,12.80
2013,08,24,07,17,12.90
2013,08,24,07,18,12.90
2013,08,24,07,19,12.90
2013,08,24,07,20,12.90
2013,08,24,07,21,12.90
2013,08,24,07,22,12.90
2013,08,24,07,23,12.90
2013,08,24,07,24,12.90
2013,08,24,07,25,12.90
2013,08,24,07,26,13.00
2013,08,24,07,27,13.00
2013,08,24,07,28,13.00
2013,08,24,07,29,13.00
2013,08,24,07,30,13.00
2013,08,24,07,31,13.00
2013,08,24,07,32,13.00
2013,08,24,07,33,13.00
2013,08,24,07,34,13.10
2013,08,24,07,35,13.10
2013,08,24,07,36,13.10
2013,08,24,07,37,13.10
2013,08,24,07,38,13.10
2013,08,24,07,39,13.10
2013,08,24,07,40,13.10
2013,08,24,07,41,13.10
2013,08,24,07,42,13.10
2013,08,24,07,43,13.10
2013,08,24,07,44,13.10
2013,08,24,07,45,13.10
2013,08,24,07,46,13.10
2013,08,24,07,47,13.10
2013,08,24,07,48,13.10
2013,08,24,07,49,13.10
2013,08,24,07,50,13.20
2013,08,24,07,51,13.20
2013,08,24,07,52,13.20
2013,08,24,07,53,13.20
2013,08,24,07,54,13.20
2013,08,24,07,55,13.30
2013,08,24,07,56,13.30
2013,08,24,07,57,13.30
2013,08,24,07,58,13.30
2013,08,24,07,59,13.30
2013,08,24,08,00,13.30
2013,08,24,08,01,13.30
2013,08,24,08,02,13.30
2013,08,24,08,03,13.30
2013,08,24,08,04,13.30
2013,08,24,08,05,13.30
2013,08,24,08,06,13.30
2013,08,24,08,07,13.40
2013,08,24,08,08,13.40
2013,08,24,08,09,13.40
2013,08,24,08,10,13.40
2013,08,24,08,11,13.40
2013,08,24,08,12,13.50
2013,08,24,08,13,13.50
2013,08,24,08,14,13.50
2013,08,24,08,15,13.60
2013,08,24,08,16,13.60
2013,08,24,08,17,13.60
2013,08,24,08,18,13.60
2013,08,24,08,19,13.60
2013,08,24,08,20,13.60
2013,08,24,08,21,13.60
2013,08,24,08,22,13.60
2013,08,24,08,23,13.50
2013,08,24,08,24,13.50
2013,08,24,08,25,13.40
2013,08,24,08,26,13.40
2013,08,24,08,27,13.40
2013,08,24,08,28,13.40
2013,08,24,08,29,13.40
2013,08,24,08,30,13.40
2013,08,24,08,31,13.40
2013,08,24,08,32,13.50
2013,08,24,08,33,13.50
2013,08,24,08,34,13.50
2013,08,24,08,35,13.50
2013,08,24,08,36,13.60
2013,08,24,08,37,13.60
2013,08,24,08,38,13.60
2013,08,24,08,39,13.60
2013,08,24,08,40,13.60
2013,08,24,08,41,13.70
2013,08,24,08,42,13.70
2013,08,24,08,43,13.70
2013,08,24,08,44,13.80
2013,08,24,08,45,13.80
2013,08,24,08,46,13.80
2013,08,24,08,47,13.80
2013,08,24,08,48,13.90
2013,08,24,08,49,13.90
2013,08,24,08,50,13.90
2013,08,24,08,51,14.00
2013,08,24,08,52,14.00
2013,08,24,08,53,14.10
2013,08,24,08,54,14.10
2013,08,24,08,55,14.10
2013,08,24,08,56,14.10
2013,08,24,08,57,14.20
2013,08,24,08,58,14.20
2013,08,24,08,59,14.20
2013,08,24,09,00,14.20
2013,08,24,09,01,14.20
2013,08,24,09,02,14.10
2013,08,24,09,03,14.10
2013,08,24,09,04,14.00
2013,08,24,09,05,14.00
2013,08,24,09,06,14.00
2013,08,24,09,07,14.10
2013,08,24,09,08,14.10
2013,08,24,09,09,14.10
2013,08,24,09,10,14.10
2013,08,24,09,11,14.10
2013,08,24,09,12,14.20
2013,08,24,09,13,14.20
2013,08,24,09,14,14.20
2013,08,24,09,15,14.30
2013,08,24,09,16,14.30
2013,08,24,09,17,14.30
2013,08,24,09,18,14.30
2013,08,24,09,19,14.40
2013,08,24,09,20,14.40
2013,08,24,09,21,14.40
2013,08,24,09,22,14.40
2013,08,24,09,23,14.50
2013,08,24,09,24,14.50
2013,08,24,09,25,14.50
2013,08,24,09,26,14.50
2013,08,24,09,27,14.40
2013,08,24,09,28,14.40
2013,08,24,09,29,14.30
2013,08,24,09,30,14.30
2013,08,24,09,31,14.30
2013,08,24,09,32,14.30
2013,08,24,09,33,14.30
2013,08,24,09,34,14.30
2013,08,24,09,35,14.30
2013,08,24,09,36,14.20
2013,08,24,09,37,14.20
2013,08,24,09,38,14.30
2013,08,24,09,39,14.30
2013,08,24,09,40,14.30
2013,08,24,09,41,14.40
2013,08,24,09,42,14.40
2013,08,24,09,43,14.40
2013,08,24,09,44,14.50
2013,08,24,09,45,14.50
2013,08,24,09,46,14.50
2013,08,24,09,47,14.50
2013,08,24,09,48,14.50
2013,08,24,09,49,14.50
2013,08,24,09,50,14.50
2013,08,24,09,51,14.50
2013,08,24,09,52,14.60
2013,08,24,09,53,14.60
2013,08,24,09,54,14.60
2013,08,24,09,55,14.60
2013,08,24,09,56,14.70
2013,08,24,09,57,14.80
2013,08,24,09,58,15.00
2013,08,24,09,59,15.00
2013,08,24,10,00,15.00
2013,08,24,10,01,15.20
2013,08,24,10,02,15.20
2013,08,24,10,03,15.30
2013,08,24,10,04,15.30
2013,08,24,10,05,15.30
2013,08,24,10,06,15.30
2013,08,24,10,07,15.40
2013,08,24,10,08,15.40
2013,08,24,10,09,15.40
2013,08,24,10,10,15.50
2013,08,24,10,11,15.60
2013,08,24,10,12,15.60
2013,08,24,10,13,15.60
2013,08,24,10,14,15.50
2013,08,24,10,15,15.40
2013,08,24,10,16,15.40
2013,08,24,10,17,15.50
2013,08,24,10,18,15.60
2013,08,24,10,19,15.60
2013,08,24,10,20,15.60
2013,08,24,10,21,15.60
2013,08,24,10,22,15.70
2013,08,24,10,23,15.80
2013,08,24,10,24,15.80
2013,08,24,10,25,15.80
2013,08,24,10,26,15.80
2013,08,24,10,27,15.90
2013,08,24,10,28,15.90
2013,08,24,10,29,15.80
2013,08,24,10,30,15.90
2013,08,24,10,31,16.00
2013,08,24,10,32,16.10
2013,08,24,10,33,16.30
2013,08,24,10,34,16.50
2013,08,24,10,35,16.70
2013,08,24,10,36,16.80
2013,08,24,10,37,16.90
2013,08,24,10,38,17.00
2013,08,24,10,39,17.10
2013,08,24,10,40,17.10
2013,08,24,10,41,17.10
2013,08,24,10,42,17.10
2013,08,24,10,43,17.10
2013,08,24,10,44,17.00
2013,08,24,10,45,16.90
2013,08,24,10,46,16.70
2013,08,24,10,47,16.60
2013,08,24,10,48,16.50
2013,08,24,10,49,16.30
2013,08,24,10,50,16.20
2013,08,24,10,51,16.10
2013,08,24,10,52,16.10
2013,08,24,10,53,16.10
2013,08,24,10,54,16.10
2013,08,24,10,55,16.10
2013,08,24,10,56,16.10
2013,08,24,10,57,16.10
2013,08,24,10,58,16.10
2013,08,24,10,59,16.10
2013,08,24,11,00,16.10
2013,08,24,11,01,16.00
2013,08,24,11,02,16.00
2013,08,24,11,03,16.00
2013,08,24,11,04,16.00
2013,08,24,11,05,16.10
2013,08,24,11,06,16.20
2013,08,24,11,07,16.30
2013,08,24,11,08,16.40
2013,08,24,11,09,16.50
2013,08,24,11,10,16.60
2013,08,24,11,11,16.70
2013,08,24,11,12,16.70
2013,08,24,11,13,16.80
2013,08,24,11,14,16.90
2013,08,24,11,15,16.90
2013,08,24,11,16,17.00
2013,08,24,11,17,17.10
2013,08,24,11,18,17.10
2013,08,24,11,19,17.20
2013,08,24,11,20,17.20
2013,08,24,11,21,17.20
2013,08,24,11,22,17.30
2013,08,24,11,23,17.30
2013,08,24,11,24,17.30
2013,08,24,11,25,17.30
2013,08,24,11,26,17.30
2013,08,24,11,27,17.30
2013,08,24,11,28,17.30
2013,08,24,11,29,17.30
2013,08,24,11,30,17.30
2013,08,24,11,31,17.30
2013,08,24,11,32,17.30
2013,08,24,11,33,17.30
2013,08,24,11,34,17.20
2013,08,24,11,35,17.20
2013,08,24,11,36,17.10
2013,08,24,11,37,17.10
2013,08,24,11,38,17.10
2013,08,24,11,39,17.10
2013,08,24,11,40,17.20
2013,08,24,11,41,17.20
2013,08,24,11,42,17.30
2013,08,24,11,43,17.30
2013,08,24,11,44,17.40
2013,08,24,11,45,17.50
2013,08,24,11,46,17.50
2013,08,24,11,47,17.50
2013,08,24,11,48,17.50
2013,08,24,11,49,17.50
2013,08,24,11,50,17.40
2013,08,24,11,51,17.40
2013,08,24,11,52,17.40
2013,08,24,11,53,17.40
2013,08,24,11,54,17.50
2013,08,24,11,55,17.50
2013,08,24,11,56,17.50
2013,08,24,11,57,17.50
2013,08,24,11,58,17.50
2013,08,24,11,59,17.60
2013,08,24,12,00,17.60
2013,08,24,12,01,17.60
2013,08,24,12,02,17.70
2013,08,24,12,03,17.90
2013,08,24,12,04,18.10
2013,08,24,12,05,18.20
2013,08,24,12,06,18.30
2013,08,24,12,07,18.40
2013,08,24,12,08,18.50
2013,08,24,12,09,18.60
2013,08,24,12,10,18.60
2013,08,24,12,11,18.70
2013,08,24,12,12,18.70
2013,08,24,12,13,18.80
2013,08,24,12,14,18.90
2013,08,24,12,15,18.90
2013,08,24,12,16,18.90
2013,08,24,12,17,18.90
2013,08,24,12,18,18.90
2013,08,24,12,19,18.90
2013,08,24,12,20,18.90
2013,08,24,12,21,18.80
2013,08,24,12,22,18.70
2013,08,24,12,23,18.60
2013,08,24,12,24,18.50
2013,08,24,12,25,18.40
2013,08,24,12,26,18.30
2013,08,24,12,27,18.30
2013,08,24,12,28,18.20
2013,08,24,12,29,18.20
2013,08,24,12,30,18.20
2013,08,24,12,31,18.20
2013,08,24,12,32,18.20
2013,08,24,12,33,18.20
2013,08,24,12,34,18.20
2013,08,24,12,35,18.10
2013,08,24,12,36,18.10
2013,08,24,12,37,18.30
2013,08,24,12,38,18.30
2013,08,24,12,39,18.40
2013,08,24,12,40,18.30
2013,08,24,12,41,18.30
2013,08,24,12,42,18.20
2013,08,24,12,43,18.20
2013,08,24,12,44,18.20
2013,08,24,12,45,18.20
2013,08,24,12,46,18.10
2013,08,24,12,47,18.00
2013,08,24,12,48,18.00
2013,08,24,12,49,18.00
2013,08,24,12,50,17.90
2013,08,24,12,51,17.90
2013,08,24,12,52,17.90
2013,08,24,12,53,18.00
2013,08,24,12,54,18.10
2013,08,24,12,55,18.20
2013,08,24,12,56,18.30
2013,08,24,12,57,18.50
2013,08,24,12,58,18.50
2013,08,24,12,59,18.60
2013,08,24,13,00,18.60
2013,08,24,13,01,18.60
2013,08,24,13,02,18.60
2013,08,24,13,03,18.60
2013,08,24,13,04,18.60
2013,08,24,13,05,18.50
2013,08,24,13,06,18.50
2013,08,24,13,07,18.40
2013,08,24,13,08,18.30
2013,08,24,13,09,18.30
2013,08,24,13,10,18.30
2013,08,24,13,11,18.30
2013,08,24,13,12,18.30
2013,08,24,13,13,18.30
2013,08,24,13,14,18.40
2013,08,24,13,15,18.40
2013,08,24,13,16,18.40
2013,08,24,13,17,18.50
2013,08,24,13,18,18.50
2013,08,24,13,19,18.60
2013,08,24,13,20,18.70
2013,08,24,13,21,18.80
2013,08,24,13,22,18.90
2013,08,24,13,23,19.00
2013,08,24,13,24,19.10
2013,08,24,13,25,19.20
2013,08,24,13,26,19.20
2013,08,24,13,27,19.20
2013,08,24,13,28,19.20
2013,08,24,13,29,19.10
2013,08,24,13,30,19.00
2013,08,24,13,31,18.90
2013,08,24,13,32,18.90
2013,08,24,13,33,18.90
2013,08,24,13,34,18.80
2013,08,24,13,35,18.70
2013,08,24,13,36,18.60
2013,08,24,13,37,18.60
2013,08,24,13,38,18.60
2013,08,24,13,39,18.50
2013,08,24,13,40,18.50
2013,08,24,13,41,18.50
2013,08,24,13,42,18.50
2013,08,24,13,43,18.40
2013,08,24,13,44,18.30
2013,08,24,13,45,18.30
2013,08,24,13,46,18.20
2013,08,24,13,47,18.20
2013,08,24,13,48,18.10
2013,08,24,13,49,18.10
2013,08,24,13,50,18.00
2013,08,24,13,51,18.00
2013,08,24,13,52,17.90
2013,08,24,13,53,17.90
2013,08,24,13,54,17.90
2013,08,24,13,55,17.80
2013,08,24,13,56,17.80
2013,08,24,13,57,17.80
2013,08,24,13,58,17.80
2013,08,24,13,59,17.80
2013,08,24,14,00,17.80
2013,08,24,14,01,17.70
2013,08,24,14,02,17.70
2013,08,24,14,03,17.70
2013,08,24,14,04,17.70
2013,08,24,14,05,17.70
2013,08,24,14,06,17.70
2013,08,24,14,07,17.70
2013,08,24,14,08,17.80
2013,08,24,14,09,17.80
2013,08,24,14,10,17.80
2013,08,24,14,11,17.80
2013,08,24,14,12,17.80
2013,08,24,14,13,17.80
2013,08,24,14,14,17.80
2013,08,24,14,15,17.80
2013,08,24,14,16,17.80
2013,08,24,14,17,17.80
2013,08,24,14,18,17.70
2013,08,24,14,19,17.70
2013,08,24,14,20,17.70
2013,08,24,14,21,17.70
2013,08,24,14,22,17.80
2013,08,24,14,23,17.90
2013,08,24,14,24,17.90
2013,08,24,14,25,17.90
2013,08,24,14,26,17.90
2013,08,24,14,27,17.90
2013,08,24,14,28,17.80
2013,08,24,14,29,17.70
2013,08,24,14,30,17.70
2013,08,24,14,31,17.70
2013,08,24,14,32,17.70
2013,08,24,14,33,17.80
2013,08,24,14,34,17.80
2013,08,24,14,35,17.90
2013,08,24,14,36,17.90
2013,08,24,14,37,17.90
2013,08,24,14,38,18.00
2013,08,24,14,39,18.00
2013,08,24,14,40,18.10
2013,08,24,14,41,18.10
2013,08,24,14,42,18.20
2013,08,24,14,43,18.20
2013,08,24,14,44,18.20
2013,08,24,14,45,18.20
2013,08,24,14,46,18.20
2013,08,24,14,47,18.30
2013,08,24,14,48,18.30
2013,08,24,14,49,18.40
2013,08,24,14,50,18.50
2013,08,24,14,51,18.50
2013,08,24,14,52,18.60
2013,08,24,14,53,18.70
2013,08,24,14,54,18.70
2013,08,24,14,55,18.60
2013,08,24,14,56,18.60
2013,08,24,14,57,18.60
2013,08,24,14,58,18.50
2013,08,24,14,59,18.50
2013,08,24,15,00,18.50
2013,08,24,15,01,18.50
2013,08,24,15,02,18.50
2013,08,24,15,03,18.40
2013,08,24,15,04,18.40
2013,08,24,15,05,18.40
2013,08,24,15,06,18.40
2013,08,24,15,07,18.40
2013,08,24,15,08,18.50
2013,08,24,15,09,18.50
2013,08,24,15,10,18.40
2013,08,24,15,11,18.30
2013,08,24,15,12,18.20
2013,08,24,15,13,18.10
2013,08,24,15,14,18.10
2013,08,24,15,15,18.10
2013,08,24,15,16,18.10
2013,08,24,15,17,18.20
2013,08,24,15,18,18.30
2013,08,24,15,19,18.30
2013,08,24,15,20,18.40
2013,08,24,15,21,18.30
2013,08,24,15,22,18.30
2013,08,24,15,23,18.30
2013,08,24,15,24,18.30
2013,08,24,15,25,18.30
2013,08,24,15,26,18.20
2013,08,24,15,27,18.20
2013,08,24,15,28,18.20
2013,08,24,15,29,18.20
2013,08,24,15,30,18.10
2013,08,24,15,31,18.00
2013,08,24,15,32,18.00
2013,08,24,15,33,18.00
2013,08,24,15,34,18.00
2013,08,24,15,35,18.00
2013,08,24,15,36,18.00
2013,08,24,15,37,18.00
2013,08,24,15,38,18.00
2013,08,24,15,39,18.00
2013,08,24,15,40,18.10
2013,08,24,15,41,18.20
2013,08,24,15,42,18.30
2013,08,24,15,43,18.30
2013,08,24,15,44,18.30
2013,08,24,15,45,18.40
2013,08,24,15,46,18.40
2013,08,24,15,47,18.30
2013,08,24,15,48,18.30
2013,08,24,15,49,18.30
2013,08,24,15,50,18.30
2013,08,24,15,51,18.30
2013,08,24,15,52,18.20
2013,08,24,15,53,18.10
2013,08,24,15,54,18.10
2013,08,24,15,55,18.10
2013,08,24,15,56,18.00
2013,08,24,15,57,17.90
2013,08,24,15,58,17.80
2013,08,24,15,59,17.80
2013,08,24,16,00,17.80
2013,08,24,16,01,17.80
2013,08,24,16,02,17.80
2013,08,24,16,03,17.80
2013,08,24,16,04,17.90
2013,08,24,16,05,18.00
2013,08,24,16,06,18.00
2013,08,24,16,07,18.10
2013,08,24,16,08,18.20
2013,08,24,16,09,18.20
2013,08,24,16,10,18.30
2013,08,24,16,11,18.30
2013,08,24,16,12,18.30
2013,08,24,16,13,18.20
2013,08,24,16,14,18.20
2013,08,24,16,15,18.10
2013,08,24,16,16,18.10
2013,08,24,16,17,18.20
2013,08,24,16,18,18.20
2013,08,24,16,19,18.30
2013,08,24,16,20,18.40
2013,08,24,16,21,18.40
2013,08,24,16,22,18.50
2013,08,24,16,23,18.50
2013,08,24,16,24,18.60
2013,08,24,16,25,18.60
2013,08,24,16,26,18.60
2013,08,24,16,27,18.70
2013,08,24,16,28,18.70
2013,08,24,16,29,18.80
2013,08,24,16,30,18.80
2013,08,24,16,31,18.70
2013,08,24,16,32,18.70
2013,08,24,16,33,18.60
2013,08,24,16,34,18.50
2013,08,24,16,35,18.40
2013,08,24,16,36,18.40
2013,08,24,16,37,18.30
2013,08,24,16,38,18.30
2013,08,24,16,39,18.20
2013,08,24,16,40,18.20
2013,08,24,16,41,18.20
2013,08,24,16,42,18.10
2013,08,24,16,43,18.10
2013,08,24,16,44,18.10
2013,08,24,16,45,18.10
2013,08,24,16,46,18.10
2013,08,24,16,47,18.00
2013,08,24,16,48,18.00
2013,08,24,16,49,18.00
2013,08,24,16,50,18.00
2013,08,24,16,51,18.00
2013,08,24,16,52,18.10
2013,08,24,16,53,18.10
2013,08,24,16,54,18.00
2013,08,24,16,55,18.00
2013,08,24,16,56,18.00
2013,08,24,16,57,17.90
2013,08,24,16,58,17.90
2013,08,24,16,59,17.90
2013,08,24,17,00,17.90
2013,08,24,17,01,17.90
2013,08,24,17,02,17.80
2013,08,24,17,03,17.80
2013,08,24,17,04,17.80
2013,08,24,17,05,17.80
2013,08,24,17,06,17.70
2013,08,24,17,07,17.70
2013,08,24,17,08,17.70
2013,08,24,17,09,17.80
2013,08,24,17,10,17.80
2013,08,24,17,11,17.80
2013,08,24,17,12,17.70
2013,08,24,17,13,17.70
2013,08,24,17,14,17.80
2013,08,24,17,15,17.80
2013,08,24,17,16,17.80
2013,08,24,17,17,17.80
2013,08,24,17,18,17.90
2013,08,24,17,19,17.90